• In Deutschland
  • Länderverzeichnis
  • Für 7 Tage
  • Wassertemperatur
  • Satellitenkarten
  • Wetterkarte
  • Widgets
  • user-avatar
    Anmelden

    Stündliche Wetter Bad Homburg vor der Höhe

    Heute, 19 Oktober, Donnerstag

    Zeit Temperatur Niederschläge Wind Luftdruck Luftfeuchtigkeit
    00:00 +12°C° 0 mm 1 m/S 737 mmHg 78%
    01:00 +12°C° 0 mm 1 m/S 737 mmHg 77%
    02:00 +12°C° 0 mm 1 m/S 736 mmHg 77%
    03:00 +12°C° 0 mm 1 m/S 736 mmHg 77%
    04:00 +11°C° 0 mm 1 m/S 736 mmHg 76%
    05:00 +11°C° 0 mm 1 m/S 736 mmHg 77%
    06:00 +11°C° 0 mm 1 m/S 736 mmHg 78%
    07:00 +10°C° 0 mm 1 m/S 736 mmHg 75%
    08:00 +12°C° 0 mm 1 m/S 736 mmHg 71%
    09:00 +14°C° 0 mm 1 m/S 736 mmHg 66%
    10:00 +16°C° 0 mm 2 m/S 736 mmHg 61%
    11:00 +17°C° 0 mm 2 m/S 736 mmHg 58%
    12:00 +18°C° 0 mm 2 m/S 736 mmHg 54%
    13:00 +20°C° 0 mm 3 m/S 736 mmHg 51%
    14:00 +20°C° 0 mm 3 m/S 736 mmHg 53%
    15:00 +20°C° 0 mm 2 m/S 736 mmHg 55%
    16:00 +20°C° 0 mm 2 m/S 736 mmHg 57%
    17:00 +18°C° 0 mm 2 m/S 735 mmHg 61%
    18:00 +17°C° 0 mm 2 m/S 735 mmHg 65%
    19:00 +15°C° 0 mm 2 m/S 735 mmHg 69%
    20:00 +15°C° 0 mm 1 m/S 736 mmHg 69%
    21:00 +15°C° 0 mm 1 m/S 736 mmHg 70%
    22:00 +14°C° 0 mm 1 m/S 736 mmHg 70%
    23:00 +14°C° 0 mm 1 m/S 736 mmHg 70%

    Morgen, 20 Oktober, Freitag

    Zeit Temperatur Niederschläge Wind Luftdruck Luftfeuchtigkeit
    00:00 +14°C° 0 mm 1 m/S 736 mmHg 69%
    01:00 +14°C° 0 mm 1 m/S 736 mmHg 69%
    02:00 +14°C° 0 mm 1 m/S 736 mmHg 68%
    03:00 +14°C° 0 mm 1 m/S 736 mmHg 68%
    04:00 +14°C° 0 mm 1 m/S 736 mmHg 67%
    05:00 +14°C° 0 mm 2 m/S 736 mmHg 69%
    06:00 +13°C° 0 mm 2 m/S 736 mmHg 71%
    07:00 +13°C° 0 mm 2 m/S 736 mmHg 72%
    08:00 +13°C° 0,7 mm 2 m/S 736 mmHg 74%
    09:00 +14°C° 0,7 mm 2 m/S 737 mmHg 76%
    10:00 +14°C° 0,7 mm 3 m/S 737 mmHg 78%
    11:00 +14°C° 0,4 mm 3 m/S 737 mmHg 80%
    12:00 +14°C° 0,4 mm 3 m/S 737 mmHg 81%
    13:00 +14°C° 0,4 mm 4 m/S 737 mmHg 82%
    14:00 +14°C° 0,1 mm 4 m/S 737 mmHg 81%
    15:00 +15°C° 0,1 mm 4 m/S 737 mmHg 80%
    16:00 +15°C° 0,1 mm 4 m/S 737 mmHg 79%
    17:00 +14°C° 0 mm 3 m/S 738 mmHg 82%
    18:00 +12°C° 0 mm 3 m/S 738 mmHg 85%
    19:00 +12°C° 0 mm 2 m/S 738 mmHg 88%
    20:00 +12°C° 0 mm 2 m/S 738 mmHg 89%
    21:00 +10°C° 0 mm 2 m/S 739 mmHg 90%
    22:00 +11°C° 0 mm 1 m/S 739 mmHg 91%
    23:00 +11°C° 0 mm 1 m/S 739 mmHg 91%

    übermorgen, 21 Oktober, Samstag

    Zeit Temperatur Niederschläge Wind Luftdruck Luftfeuchtigkeit
    00:00 +11°C° 0 mm 1 m/S 739 mmHg 91%
    01:00 +11°C° 0 mm 1 m/S 739 mmHg 92%
    02:00 +11°C° 0 mm 1 m/S 738 mmHg 92%
    03:00 +11°C° 0 mm 1 m/S 738 mmHg 93%
    04:00 +12°C° 0 mm 2 m/S 738 mmHg 93%
    05:00 +12°C° 0 mm 2 m/S 737 mmHg 93%
    06:00 +12°C° 0 mm 2 m/S 737 mmHg 93%
    07:00 +12°C° 0 mm 2 m/S 737 mmHg 93%
    08:00 +12°C° 0 mm 3 m/S 737 mmHg 88%
    09:00 +14°C° 0 mm 3 m/S 737 mmHg 83%
    10:00 +15°C° 0 mm 4 m/S 737 mmHg 78%
    11:00 +15°C° 0,2 mm 4 m/S 737 mmHg 79%
    12:00 +15°C° 0,2 mm 4 m/S 737 mmHg 80%
    13:00 +16°C° 0,2 mm 3 m/S 737 mmHg 82%
    14:00 +16°C° 0,3 mm 3 m/S 737 mmHg 83%
    15:00 +14°C° 0,3 mm 3 m/S 737 mmHg 85%
    16:00 +14°C° 0,3 mm 3 m/S 737 mmHg 87%
    17:00 +14°C° 0,8 mm 3 m/S 737 mmHg 87%
    18:00 +13°C° 0,8 mm 3 m/S 737 mmHg 88%
    19:00 +13°C° 0,8 mm 4 m/S 738 mmHg 88%
    20:00 +12°C° 0,2 mm 4 m/S 738 mmHg 88%
    21:00 +11°C° 0,2 mm 4 m/S 738 mmHg 87%
    22:00 +11°C° 0,2 mm 4 m/S 739 mmHg 86%
    23:00 +10°C° 0 mm 4 m/S 739 mmHg 87%

    22 Oktober, Sonntag

    Zeit Temperatur Niederschläge Wind Luftdruck Luftfeuchtigkeit
    00:00 +10°C° 0 mm 4 m/S 739 mmHg 87%
    01:00 +10°C° 0 mm 4 m/S 739 mmHg 88%
    02:00 +8°C° 0 mm 4 m/S 739 mmHg 88%
    03:00 +8°C° 0 mm 4 m/S 738 mmHg 88%
    04:00 +8°C° 0 mm 4 m/S 738 mmHg 88%
    05:00 +7°C° 0 mm 4 m/S 738 mmHg 87%
    06:00 +7°C° 0 mm 4 m/S 738 mmHg 87%
    07:00 +7°C° 0 mm 4 m/S 738 mmHg 86%
    08:00 +8°C° 0 mm 4 m/S 738 mmHg 82%
    09:00 +8°C° 0 mm 5 m/S 738 mmHg 78%
    10:00 +9°C° 0 mm 5 m/S 738 mmHg 74%
    11:00 +9°C° 0 mm 5 m/S 738 mmHg 73%
    12:00 +9°C° 0 mm 5 m/S 738 mmHg 71%
    13:00 +9°C° 0 mm 5 m/S 738 mmHg 70%
    14:00 +9°C° 0,1 mm 5 m/S 738 mmHg 71%
    15:00 +10°C° 0,1 mm 4 m/S 738 mmHg 72%
    16:00 +10°C° 0,1 mm 4 m/S 738 mmHg 73%
    17:00 +8°C° 0,1 mm 4 m/S 738 mmHg 76%
    18:00 +8°C° 0,1 mm 4 m/S 739 mmHg 79%
    19:00 +8°C° 0,1 mm 3 m/S 739 mmHg 82%
    20:00 +8°C° 0,2 mm 3 m/S 739 mmHg 83%
    21:00 +8°C° 0,2 mm 3 m/S 740 mmHg 84%
    22:00 +8°C° 0,2 mm 3 m/S 740 mmHg 86%
    23:00 +8°C° 0,2 mm 3 m/S 740 mmHg 87%

    23 Oktober, Montag

    Zeit Temperatur Niederschläge Wind Luftdruck Luftfeuchtigkeit
    00:00 +8°C° 0,2 mm 3 m/S 740 mmHg 87%
    01:00 +8°C° 0,2 mm 3 m/S 740 mmHg 88%
    02:00 +8°C° 0,1 mm 3 m/S 741 mmHg 88%
    03:00 +8°C° 0,1 mm 3 m/S 741 mmHg 88%
    04:00 +8°C° 0,1 mm 3 m/S 741 mmHg 88%
    05:00 +8°C° 0,1 mm 3 m/S 741 mmHg 88%
    06:00 +8°C° 0,1 mm 3 m/S 742 mmHg 88%
    07:00 +8°C° 0,1 mm 3 m/S 742 mmHg 89%
    08:00 +9°C° 0 mm 3 m/S 742 mmHg 86%
    09:00 +9°C° 0 mm 3 m/S 743 mmHg 83%
    10:00 +10°C° 0 mm 3 m/S 743 mmHg 81%
    11:00 +10°C° 0 mm 3 m/S 743 mmHg 78%
    12:00 +11°C° 0 mm 3 m/S 744 mmHg 76%
    13:00 +12°C° 0 mm 3 m/S 744 mmHg 73%
    14:00 +11°C° 0,1 mm 3 m/S 744 mmHg 76%
    15:00 +11°C° 0,1 mm 3 m/S 744 mmHg 79%
    16:00 +11°C° 0,1 mm 3 m/S 744 mmHg 82%
    17:00 +10°C° 0,2 mm 3 m/S 744 mmHg 84%
    18:00 +10°C° 0,2 mm 3 m/S 744 mmHg 87%
    19:00 +10°C° 0,2 mm 3 m/S 744 mmHg 90%
    20:00 +10°C° 0,3 mm 3 m/S 744 mmHg 90%
    21:00 +10°C° 0,3 mm 3 m/S 744 mmHg 91%
    22:00 +10°C° 0,3 mm 3 m/S 744 mmHg 91%
    23:00 +10°C° 0,4 mm 3 m/S 744 mmHg 92%

    24 Oktober, Dienstag

    Zeit Temperatur Niederschläge Wind Luftdruck Luftfeuchtigkeit
    00:00 +10°C° 0,4 mm 2 m/S 744 mmHg 92%
    01:00 +10°C° 0,4 mm 2 m/S 744 mmHg 93%
    02:00 +10°C° 0,2 mm 2 m/S 744 mmHg 93%
    03:00 +10°C° 0,2 mm 2 m/S 744 mmHg 93%
    04:00 +10°C° 0,2 mm 2 m/S 744 mmHg 94%
    05:00 +10°C° 0,1 mm 2 m/S 745 mmHg 94%
    06:00 +11°C° 0,1 mm 1 m/S 745 mmHg 94%
    07:00 +11°C° 0,1 mm 1 m/S 745 mmHg 94%
    08:00 +12°C° 0,1 mm 1 m/S 745 mmHg 94%
    09:00 +12°C° 0,1 mm 1 m/S 746 mmHg 93%
    10:00 +12°C° 0,1 mm 1 m/S 746 mmHg 92%
    11:00 +13°C° 0 mm 1 m/S 746 mmHg 91%
    12:00 +13°C° 0 mm 1 m/S 746 mmHg 89%
    13:00 +14°C° 0 mm 1 m/S 746 mmHg 87%
    14:00 +14°C° 0 mm 1 m/S 746 mmHg 87%
    15:00 +14°C° 0 mm 1 m/S 746 mmHg 87%
    16:00 +14°C° 0 mm 1 m/S 746 mmHg 86%
    17:00 +14°C° 0 mm 1 m/S 746 mmHg 89%
    18:00 +13°C° 0 mm 1 m/S 746 mmHg 91%
    19:00 +12°C° 0 mm 1 m/S 746 mmHg 94%
    20:00 +12°C° 0 mm 1 m/S 746 mmHg 94%
    21:00 +12°C° 0 mm 1 m/S 747 mmHg 94%
    22:00 +12°C° 0 mm 1 m/S 747 mmHg 95%
    23:00 +11°C° 0 mm 1 m/S 747 mmHg 95%
    Mehr zeigen